Location: Devore Heights
(34.2372°N, 117.4156°W)
Time: 08:23:47
(UTC+00:00)

A-11 Canister half - Pass Details

Date: 13 September 2024
Orbit: 1515 x 1684 km, 47.2° (Epoch: 07 October)

Event Time Altitude Azimuth Distance (km) Brightness Sun altitude
Rises 05:29:25 0° 282° (WNW) 4,685 12.2 -40.4°
Reaches altitude 10° 05:32:50 10° 291° (WNW) 3,689 11.6 -40.9°
Maximum altitude 05:41:13 37° 356° (N) 2,206 10.0 -42.2°
Enters shadow 05:43:43 32° 26° (NNE) 2,376 10.0 -42.5°
Drops below altitude 10° 05:49:37 10° 61° (ENE) 3,688 - -43.4°
Sets 05:53:03 0° 70° (ENE) 4,683 - -43.8°
